Flag for Brazil Weather past 2 weeks in Florianópolis, Santa Catarina, Brazil

Now
63 °F

Clear.


Feels Like: 63 °F
Forecast: 58 / 69 °F
Wind: 10 mph from South

Location: Florianopolis Aeroporto

Current Time: Sep 21, 2014 at 11:12:46 PM

Latest Report: Sep 21, 2014 at 10:00 PM


Visibility: 10 mi

Pressure: 30.15 "Hg

Humidity: 64%

Dew point: 50 °F

Location of FlorianópolisLocation

Historic Weather in Florianópolis — Graph

°F

Florianópolis temperature yesterday

Maximum temperature yesterday: 77 °F (at 10:00 AM)
Minimum temperature yesterday: 66 °F (at 1:00 AM)
Average temperature yesterday: 68 °F

Past Weeks' High & Low Weather Summary

 TemperatureHumidityPressure
High86 °F (Sep 10, 1:00 PM)100% (Sep 8, 3:00 PM)30.18 "Hg (Sep 8, 3:00 PM)
Low46 °F (Sep 18, 12:00 PM)40% (Sep 10, 1:00 PM)29.68 "Hg (Sep 10, 3:00 PM)
Average68 °F77%30.00 "Hg
* Reported Sep 6 10:00 PM — Sep 21 10:00 PM, Florianópolis, Weather by CustomWeather, © 2014

Note: Actual official high and low records may vary slightly from our data, if they occured in-between our weather recording intervals... More about our weather records

Advertising

Florianópolis weather history for previous 24 hours

 ConditionsComfort  
Time TempWeatherWind HumidityBarometerVisibility
10:00 PM
Sep 21
63 °FClear.10 mph64%30.15 "Hg10 mi
9:00 PM64 °FClear.20 mph56%30.12 "Hg10 mi
8:00 PM64 °FClear.18 mph60%30.12 "Hg10 mi
7:00 PM66 °FPassing clouds.14 mph56%30.07 "HgN/A
6:00 PM68 °FPassing clouds.15 mph53%30.04 "HgN/A
5:00 PM70 °FPassing clouds.16 mph50%30.01 "HgN/A
4:00 PM70 °FPassing clouds.20 mph53%29.98 "HgN/A
3:00 PM72 °FPassing clouds.20 mph50%29.98 "HgN/A
2:00 PM70 °FPassing clouds.15 mph60%29.98 "HgN/A
1:00 PM70 °FPassing clouds.18 mph64%29.98 "HgN/A
12:00 PM72 °FPassing clouds.12 mph61%29.98 "HgN/A
11:00 AM72 °FPassing clouds.6 mph57%30.01 "HgN/A
10:00 AM70 °FPassing clouds.7 mph64%30.01 "HgN/A
9:00 AM68 °FPassing clouds.9 mph69%29.98 "HgN/A
8:00 AM66 °FPassing clouds.10 mph73%29.98 "HgN/A
7:00 AM66 °FPartly sunny.6 mph88%29.92 "HgN/A
6:00 AM61 °FPartly sunny.2 mph94%29.95 "Hg5 mi
5:00 AM61 °FPassing clouds.3 mph94%29.92 "HgN/A
4:00 AM66 °FPassing clouds.6 mph88%29.92 "HgN/A
3:00 AM63 °FPassing clouds.No wind94%29.89 "HgN/A
2:00 AM66 °FPassing clouds.6 mph88%29.92 "HgN/A
1:00 AM66 °FPassing clouds.1 mph88%29.92 "HgN/A
12:00 AM66 °FPassing clouds.2 mph88%29.92 "HgN/A
11:00 PM
Sep 20
66 °FScattered showers. Passing clouds.2 mph88%29.92 "HgN/A
Weather by CustomWeather, © 2014

See weather overviewHow to use our weather pages